This demonstration page uses our WeatherBlox Daily Observations layout. Learn more.

Left ArrowRight Arrow

34.16533, -84.80231

Hourly Observations for August 22, 2020

Temp ( °F °C ) Dew Point ( °F °C ) Humidity (%) Winds ( mph kmh ) Pressure ( in mb ) Visibility ( mi km ) Precip ( " mm )
12:53 am 00:53 Clear 70 21.1 67 19.4 90 90 Calm 29.91 1013 7 11 0.00 0.00
1:53 am 01:53 Clear 69 20.6 67 19.4 93 93 ENE 3 6 29.91 1013 8 13 0.00 0.00
2:53 am 02:53 Clear 70 21.1 67 19.4 90 90 Calm 29.91 1013 9 14 0.00 0.00
3:53 am 03:53 Mostly Cloudy with Light Rain 72 22.2 69 20.6 91 91 S 6 9 29.92 1013 7 11 0.00 0.00
4:53 am 04:53 Mostly Clear 71 21.7 69 20.6 94 94 Calm 29.91 1013 9 14 0.04 1.02
5:53 am 05:53 Mostly Clear with Mist and Fog 70 21.1 68 20 93 93 Calm 29.91 1013 5 8 0.00 0.00
6:10 am 06:10 Mostly Cloudy with Mist and Fog 69 20.6 67 19.4 93 93 Calm 29.94 1014 2 3 0.00 0.00
6:15 am 06:15 Mostly Cloudy with Mist and Fog 69 20.6 67 19.4 93 93 Calm 29.94 1014 2 2 0.00 0.00
6:32 am 06:32 Cloudy with Mist and Fog 70 21.1 68 20 93 93 Calm 29.94 1014 3 5 0.00 0.00
6:53 am 06:53 Cloudy with Mist and Fog 70 21.1 67 19.4 90 90 Calm 29.93 1014 5 8 0.00 0.00
7:53 am 07:53 Cloudy with Mist and Fog 71 21.7 69 20.6 94 94 Calm 29.96 1014 6 10 0.00 0.00
8:06 am 08:06 Mostly Cloudy with Mist and Fog 71 21.7 69 20.6 94 94 Calm 29.97 1015 6 10 0.00 0.00
8:53 am 08:53 Partly Cloudy 74 23.3 70 21.1 88 88 E 5 7 29.96 1015 9 14 0.00 0.00
9:07 am 09:07 Mostly Cloudy 74 23.3 70 21.1 88 88 SE 5 7 29.98 1015 9 14 0.00 0.00
9:53 am 09:53 Mostly Cloudy 76 24.4 70 21.1 82 82 Calm 29.97 1015 10 16 0.00 0.00
10:09 am 10:09 Mostly Sunny 77 25 69 20.6 77 77 VRB 3 6 29.98 1015 10 16 0.00 0.00
10:53 am 10:53 Mostly Cloudy 79 26.1 70 21.1 74 74 SE 5 7 29.98 1015 10 16 0.00 0.00
11:37 am 11:37 Mostly Cloudy 80 26.7 69 20.6 69 69 SSE 6 9 29.99 1015 10 16 0.00 0.00
11:53 am 11:53 Mostly Cloudy 81 27.2 68 20 65 65 Calm 29.97 1015 10 16 0.00 0.00
12:53 pm 12:53 Mostly Sunny 84 28.9 69 20.6 61 61 S 6 9 29.97 1015 10 16 0.00 0.00
1:53 pm 13:53 Mostly Cloudy 83 28.3 68 20 61 61 Calm 29.96 1014 10 16 0.00 0.00
2:53 pm 14:53 Mostly Sunny 86 30 69 20.6 57 57 SSE 7 11 29.94 1014 10 16 0.00 0.00
3:53 pm 15:53 Mostly Cloudy 84 28.9 69 20.6 61 61 SSE 8 13 29.94 1014 10 16 0.00 0.00
4:53 pm 16:53 Cloudy 83 28.3 68 20 61 61 S 5 7 29.93 1014 10 16 0.00 0.00
5:53 pm 17:53 Mostly Sunny 86 30 69 20.6 57 57 S 8 13 29.93 1014 10 16 0.00 0.00
6:53 pm 18:53 Mostly Sunny 82 27.8 68 20 63 63 S 5 7 29.94 1014 10 16 0.00 0.00
7:53 pm 19:53 Sunny 80 26.7 69 20.6 69 69 S 3 6 29.94 1014 10 16 0.00 0.00
8:53 pm 20:53 Clear 74 23.3 70 21.1 88 88 Calm 29.96 1015 9 14 0.00 0.00
9:53 pm 21:53 Partly Cloudy 73 22.8 70 21.1 90 90 Calm 29.98 1015 10 16 0.00 0.00
10:38 pm 22:38 Cloudy with Nearby Thunderstorms 77 25 69 20.6 77 77 SSE 9 15 30.00 1016 10 16 0.00 0.00
10:53 pm 22:53 Cloudy 76 24.4 69 20.6 79 79 SSE 7 11 30.00 1016 10 16 0.00 0.00
11:13 pm 23:13 Partly Cloudy with Nearby Thunderstorms 75 23.9 69 20.6 82 82 SSE 6 9 30.01 1016 10 16 0.00 0.00
11:28 pm 23:28 Mostly Clear 75 23.9 69 20.6 82 82 Calm 30.01 1016 10 16 0.00 0.00
11:53 pm 23:53 Clear 73 22.8 69 20.6 87 87 SE 3 6 30.00 1016 10 16 0.00 0.00

Powered by AerisWeather